Preview of NWS' New Version of Forecast
This preview is not operational and should not be used for support decisions.

Regional Weather Roundup (RWR)

Issued by National Weather Service (NWS)

                            
000
ASUS43 KMKX 192321
RWRWI 

WISCONSIN REGIONAL WEATHER ROUNDUP
NATIONAL WEATHER SERVICE MILWAUKEE/SULLIVAN WI
600 PM CDT MON AUG 19 2019

NOTE: "FAIR" INDICATES FEW OR NO CLOUDS BELOW 12,000 FEET WITH NO
SIGNIFICANT WEATHER AND/OR OBSTRUCTIONS TO VISIBILITY.

WIZ001-002-006>008-014>016-023>028-200000-
NORTHWEST WISCONSIN
  
CITY           SKY/WX    TMP DP  RH WIND       PRES   REMARKS
SUPERIOR ARPT  FAIR      79  57  46 SW12G18   29.91S HX  80           
ASHLAND        FAIR      77  56  48 SW14      29.93F                  
HAYWARD        FAIR      76  55  48 S13       29.98S                  
SIREN          FAIR      78  54  43 SW10      29.97S                  
CUMBERLAND     FAIR      73  52  46 S10       29.99F                  
RICE LAKE      FAIR      76  55  48 S7        30.00F                  
CHETEK         FAIR      76  56  49 SW6       30.00S                  
LADYSMITH      FAIR      75  55  51 SW8       30.02S                  
EAU CLAIRE     FAIR      76  55  48 SW6       29.99F                  
MENOMONIE      FAIR      73  54  50 S7        29.99F                  
NEW RICHMOND   FAIR      76  53  43 S8        29.99S                  
OSCEOLA        FAIR      78  59  52 S8        30.00S                  
$$
 
WIZ003>005-009-010-017-018-200000-
NORTH CENTRAL WISCONSIN
  
CITY           SKY/WX    TMP DP  RH WIND       PRES   REMARKS
MANITOWISH WTR FAIR      72  52  49 S10       30.00S                  
ARBOR VITAE    FAIR      73  53  48 SW5       30.01S                  
WOODRUFF       FAIR      73  53  48 SW5       30.01S                  
RHINELANDER    FAIR      73  51  46 W7        30.02F                  
EAGLE RIVER    FAIR      71  49  44 SW9G16    30.01S                  
LAND O LAKES   NOT AVBL                                               
PHILLIPS       FAIR      72  55  55 SW8       30.01S                  
TOMAHAWK       FAIR      73  52  48 CALM      30.02S                  
MEDFORD        FAIR      71  53  53 W6        30.03R                  
MERRILL        FAIR      74  54  48 W7        30.02S                  
$$
 
WIZ029-030-035-036-043>047-200000-
CENTRAL WISCONSIN
  
CITY           SKY/WX    TMP DP  RH WIND       PRES   REMARKS
WAUSAU         FAIR      75  51  43 W7        30.00F                  
MOSINEE        MOSUNNY   75  52  43 W6        30.03F                  
MARSHFIELD     FAIR      75  54  47 W7        30.01F                  
STEVENS POINT  FAIR      74  50  41 W7        30.02S                  
WAUPACA        FAIR      80  51  36 CALM      30.01S HX  80           
WAUTOMA        FAIR      79  58  48 CALM      30.01F HX  80           
WISC RAPIDS    FAIR      78  52  40 SW3       30.02S                  
CAMP DOUGLAS   MOSUNNY   79  59  50 W6        30.01S HX  80           
$$
 
WIZ011>013-019>022-031-037>040-048>050-200000-
NORTHEAST WISCONSIN
  
CITY           SKY/WX    TMP DP  RH WIND       PRES   REMARKS
ANTIGO         FAIR      71  51  49 W7        30.03S                  
SHAWANO        FAIR      78  52  40 W7        30.00S                  
OCONTO         FAIR      76  54  45 SW5       29.99F                  
STURGEON BAY   FAIR      72  60  66 S7        30.01F                  
GREEN BAY      FAIR      78  55  44 W7        30.00F                  
MANITOWOC      FAIR      73  64  73 E7        30.01F                  
APPLETON       MOSUNNY   75  45  33 SW7       30.00F                  
CLINTONVILLE   FAIR      78  50  37 SW6       30.00F                  
OSHKOSH        FAIR      77  55  46 VRB5      30.01S                  
$$
 
WIZ032>034-041-042-053>061-200000-
SOUTHWEST WISCONSIN
  
CITY           SKY/WX    TMP DP  RH WIND       PRES   REMARKS
LA CROSSE      FAIR      81  56  42 CALM      29.99F HX  81           
SPARTA         FAIR      77  53  42 NW6       30.02S                  
VIROQUA        FAIR      76  56  49 CALM      30.02F                  
BOSCOBEL       FAIR      81  60  48 NW3       30.00S HX  82           
PRAIRIE DU CHI FAIR      80  57  44 CALM      29.99F HX  81           
PLATTEVILLE    FAIR      79  64  59 CALM      30.01F HX  81           
$$

WIZ056-057-062-063-064-067-068-200000-
SOUTH CENTRAL WISCONSIN
  
CITY           SKY/WX    TMP DP  RH WIND       PRES   REMARKS
REEDSBURG      FAIR      77  62  58 SW5       30.01S                  
BARABOO/DELLS  FAIR      78  59  52 SW3       30.02S                  
LONE ROCK      FAIR      81  59  47 N3        30.00S HX  81           
MINERAL POINT  FAIR      86  63  45 CALM      30.02F HX  87           
MADISON        FAIR      81  60  48 CALM      30.00S HX  82           
MIDDLETON      FAIR     N/A N/A N/A CALM      30.02S                  
WATERTOWN      FAIR      80  58  48 W3        30.01S HX  80           
MONROE         FAIR      80  64  59 CALM      30.02R HX  81           
JANESVILLE     MOSUNNY   82  66  57 CALM      30.00F HX  85           
$$
 
WIZ051-052-058>065-066-070>072-200000-
SOUTHEAST WISCONSIN
  
CITY           SKY/WX    TMP DP  RH WIND       PRES   REMARKS
MILWAUKEE      FAIR      79  66  64 SE10      30.00F HX  81           
WAUKESHA       MOSUNNY   79  63  57 W6        30.02F HX  80           
MILWAUKEE/TIMM SUNNY     77  61  57 E5        30.01F                  
RACINE         FAIR      78  68  71 SE9       30.02F HX  80           
KENOSHA        FAIR      80  71  74 E6        30.01F HX  84           
FOND DU LAC    FAIR      80  56  43 W6        30.02S HX  80           
SHEBOYGAN      FAIR      76  60  57 SE6       30.01S                  
WEST BEND      FAIR      77  63  61 SE5       30.01F                  
JUNEAU         FAIR      76  60  57 CALM      30.03S                  
$$

LSZ147-162-200000-
LAKE SUPERIOR
  
STATION/POSITION TIME  TEMP    WIND        PRES    WAVE
                       AIR SEA DIR/SP/G            HT/PER
                 (UTC) (F)     (DEG/KT/KT) (MB)    (FT/S)
W MID LAKE BUOY  2250   68 63  220/ 14/ 16 1011.4F   3/ 4
DEVILS ISLAND    2300   73     210/  6/  8 1012.3R
SAXON HARBOR     2240   77     210/  6/ 13 1013.2S
$$
 
LMZ867-665-643>646-200000-
LAKE MICHIGAN
  
STATION/POSITION TIME  TEMP    WIND        PRES    WAVE
                       AIR SEA DIR/SP/G            HT/PER
                 (UTC) (F)     (DEG/KT/KT) (MB)    (FT/S)
S GREEN BAY BUOY 2230   79 72  180/  4/  6 1016.2S
N MID LAKE BUOY  2300   70 70  220/ 10/ 12 1016.2
NORTHPORT PIER   2240   71     130/  3/  7 1015.6S
KEWAUNEE LAKESHO 2242   69     180/  7/  8 1015.6F
SHEBOYGAN LAKESH 2300   70     170/  8/  8 1016.4S
PORT WASHINGTON  2230   76     170/  3/  6 1017.3S
ATWATER BUOY     2030   72 71  130/  6/  8 1017.0    1
S MID LAKE BUOY  2300   75 75   60/  2/  2 1016.5
KENOSHA   LAKESH 2300   78      90/  4/  5 1015.6
$$

TC  - TEMPERATURE IN CELSIUS
VSB - VISIBILITY IN STATUTE MILES
WCI - WIND CHILL INDEX
HX  - HEAT INDEX